This demonstration page uses our WeatherBlox Daily Observations layout. Learn more.

Left ArrowRight Arrow

39.51506, -84.39828

Hourly Observations for December 9, 2018

Temp ( °F °C ) Dew Point ( °F °C ) Humidity (%) Winds ( mph kmh ) Pressure ( in mb ) Visibility ( mi km ) Precip ( " mm )
12:15 am 00:15 Clear 24 -4.2 17 -8.1 75 75 NE 9 15 30.50 1033 10 16 N/A
12:35 am 00:35 Clear 24 -4.2 17 -8.1 75 75 NE 8 13 30.50 1033 10 16 N/A
12:55 am 00:55 Clear 24 -4.2 18 -8 75 75 NE 8 13 30.48 1032 10 16 N/A
1:15 am 01:15 Clear 25 -4.1 18 -7.9 75 75 NE 8 13 30.48 1032 10 16 N/A
1:35 am 01:35 Clear 24 -4.2 18 -7.9 76 76 NE 6 9 30.48 1032 10 16 N/A
1:55 am 01:55 Clear 25 -4.1 18 -7.8 76 76 NE 6 9 30.45 1031 10 16 N/A
2:15 am 02:15 Clear 24 -4.2 18 -7.8 76 76 NNE 7 11 30.45 1031 10 16 N/A
2:35 am 02:35 Clear 24 -4.2 18 -7.8 76 76 NNE 7 11 30.45 1031 10 16 N/A
2:55 am 02:55 Clear 24 -4.2 18 -7.7 77 77 NNE 8 13 30.45 1031 10 16 N/A
3:15 am 03:15 Clear 25 -4.1 18 -7.7 76 76 NNE 8 13 30.45 1031 10 16 N/A
3:35 am 03:35 Clear 25 -4.1 18 -7.6 77 77 NNE 8 13 30.45 1031 10 16 N/A
3:55 am 03:55 Clear 24 -4.2 18 -7.6 77 77 NNE 6 9 30.45 1031 10 16 N/A
4:15 am 04:15 Clear 24 -4.2 18 -7.6 77 77 NNE 7 11 30.42 1030 10 16 N/A
4:35 am 04:35 Clear 24 -4.3 18 -7.6 78 78 NNE 7 11 30.42 1030 10 16 N/A
4:55 am 04:55 Clear 24 -4.3 19 -7.5 79 79 NNE 8 13 30.36 1028 10 16 N/A
5:15 am 05:15 Clear 24 -4.3 18 -7.6 78 78 NNE 7 11 30.36 1028 10 16 N/A
5:35 am 05:35 Clear 24 -4.4 19 -7.5 79 79 NNE 8 13 30.39 1029 10 16 N/A
5:55 am 05:55 Clear 24 -4.3 19 -7.5 79 79 NE 6 9 30.36 1028 10 16 N/A
6:15 am 06:15 Clear 24 -4.4 19 -7.5 79 79 NE 6 9 30.39 1029 10 16 N/A
6:35 am 06:35 Clear 24 -4.5 18 -7.6 79 79 NNE 7 11 30.39 1029 10 16 N/A
6:55 am 06:55 Clear 24 -4.6 19 -7.5 80 80 N 8 13 30.36 1028 10 16 N/A
7:15 am 07:15 Clear 24 -4.5 18 -7.6 79 79 NNE 9 15 30.33 1027 10 16 N/A
7:35 am 07:35 Clear 24 -4.6 18 -7.6 80 80 NNE 9 15 30.36 1028 10 16 N/A
7:55 am 07:55 Sunny 24 -4.7 18 -7.6 80 80 NNE 8 13 30.36 1028 10 16 N/A
8:15 am 08:15 Sunny 24 -4.6 18 -7.6 80 80 NNE 10 17 30.36 1028 10 16 N/A
8:35 am 08:35 Sunny 24 -4.5 18 -7.6 79 79 NNE 9 15 30.33 1027 10 16 N/A
8:55 am 08:55 Sunny 24 -4.3 19 -7.5 79 79 NNE 8 13 30.33 1027 10 16 N/A
9:15 am 09:15 Sunny 24 -4.2 19 -7.5 78 78 NNE 8 13 30.33 1027 10 16 N/A
9:35 am 09:35 Sunny 25 -3.9 19 -7.5 76 76 NE 8 13 30.36 1028 10 16 N/A
9:55 am 09:55 Sunny 25 -3.7 19 -7.4 76 76 NNE 7 11 30.36 1028 10 16 N/A
10:15 am 10:15 Sunny 26 -3.5 18 -7.6 74 74 NNE 8 13 30.36 1028 10 16 N/A
10:35 am 10:35 Sunny 27 -3 19 -7.3 73 73 NNE 10 17 30.36 1028 10 16 N/A
10:55 am 10:55 Sunny 28 -2.5 19 -7.4 69 69 NNE 10 17 30.36 1028 10 16 N/A
11:15 am 11:15 Sunny 29 -1.4 19 -7 66 66 NNE 8 13 30.36 1028 10 16 N/A
11:35 am 11:35 Sunny 30 -1.2 19 -7.4 63 63 NNE 8 13 30.33 1027 10 16 N/A
11:55 am 11:55 Sunny 31 -0.6 19 -7.5 60 60 NE 8 13 30.33 1027 10 16 N/A
12:15 pm 12:15 Sunny 33 0.3 19 -7.4 57 57 NNE 9 15 30.33 1027 10 16 N/A
12:35 pm 12:35 Sunny 34 1 19 -7.5 53 53 NNE 10 17 30.33 1027 10 16 N/A
12:55 pm 12:55 Sunny 34 1.2 18 -7.6 52 52 NE 8 13 30.30 1026 10 16 N/A
1:15 pm 13:15 Sunny 36 2 18 -7.7 49 49 NE 9 15 30.30 1026 10 16 N/A
1:35 pm 13:35 Sunny 37 2.7 18 -8 46 46 NNE 8 13 30.30 1026 10 16 N/A
1:55 pm 13:55 Sunny 37 2.8 17 -8.1 45 45 NNE 9 15 30.30 1026 10 16 N/A
2:15 pm 14:15 Sunny 38 3.2 16 -8.7 42 42 NE 8 13 30.27 1025 10 16 N/A
2:35 pm 14:35 Sunny 38 3.3 15 -9.2 40 40 NNE 10 17 30.27 1025 10 16 N/A
2:55 pm 14:55 Sunny 38 3.2 14 -9.8 38 38 NNE 13 20 30.27 1025 10 16 N/A
3:15 pm 15:15 Sunny 38 3.3 15 -9.3 40 40 N 9 15 30.27 1025 10 16 N/A
3:35 pm 15:35 Sunny 38 3.4 15 -9.4 39 39 NNE 10 17 30.24 1024 10 16 N/A
3:55 pm 15:55 Sunny 37 2.9 20 -6.7 50 50 N 8 13 30.24 1024 10 16 N/A
4:15 pm 16:15 Sunny 37 2.8 19 -7.1 49 49 N 6 9 30.24 1024 10 16 N/A
4:35 pm 16:35 Sunny 36 2.4 19 -7 50 50 N 8 13 30.27 1025 10 16 N/A
4:55 pm 16:55 Sunny 35 1.7 19 -7.1 52 52 N 7 11 30.27 1025 10 16 N/A
5:15 pm 17:15 Clear 33 0.8 19 -7 56 56 N 8 13 30.27 1025 10 16 N/A
5:35 pm 17:35 Clear 32 -0.1 19 -7.1 60 60 N 6 9 30.27 1025 10 16 N/A
5:55 pm 17:55 Clear 31 -0.4 19 -7.2 60 60 N 3 6 30.27 1025 10 16 N/A
6:15 pm 18:15 Clear 30 -1.1 19 -7.4 63 63 N 5 7 30.27 1025 10 16 N/A
6:35 pm 18:35 Clear 29 -1.6 19 -7.5 64 64 N 6 9 30.27 1025 10 16 N/A
6:55 pm 18:55 Clear 29 -1.6 18 -7.7 64 64 N 7 11 30.27 1025 10 16 N/A
7:15 pm 19:15 Clear 29 -1.4 18 -7.8 62 62 N 7 11 30.27 1025 10 16 N/A
7:35 pm 19:35 Clear 29 -1.6 18 -7.8 63 63 N 6 9 30.27 1025 10 16 N/A
7:55 pm 19:55 Clear 29 -1.9 19 -7.5 66 66 NNE 7 11 30.27 1025 10 16 N/A
8:15 pm 20:15 Clear 28 -2 19 -7.2 68 68 NNE 8 13 30.27 1025 10 16 N/A
8:35 pm 20:35 Clear 28 -2.3 19 -7.3 69 69 NNE 7 11 30.27 1025 10 16 N/A
8:55 pm 20:55 Clear 28 -2.4 19 -7.2 70 70 NNE 6 9 30.27 1025 10 16 N/A
9:15 pm 21:15 Clear 27 -2.7 19 -7.2 71 71 NNE 7 11 30.27 1025 10 16 N/A
9:35 pm 21:35 Clear 27 -2.8 19 -7.1 73 73 NNE 7 11 30.27 1025 10 16 N/A
9:55 pm 21:55 Clear 26 -3.1 19 -7.2 74 74 NNE 7 11 30.27 1025 10 16 N/A
10:15 pm 22:15 Clear 26 -3.2 19 -7.1 75 75 NNE 8 13 30.27 1025 10 16 N/A
10:35 pm 22:35 Clear 26 -3.4 19 -7.1 76 76 NNE 7 11 30.27 1025 10 16 N/A
10:55 pm 22:55 Clear 26 -3.6 19 -7.2 76 76 NNE 7 11 30.27 1025 10 16 N/A
11:15 pm 23:15 Clear 25 -3.7 19 -7 78 78 NNE 7 11 30.27 1025 10 16 N/A
11:35 pm 23:35 Clear 25 -3.9 19 -7 79 79 NNE 7 11 30.27 1025 10 16 N/A
11:55 pm 23:55 Clear 25 -4 19 -7 80 80 NNE 7 11 30.27 1025 10 16 N/A

Powered by AerisWeather